RYR26EN LDZA-LFSB

Flight info

Callsign RYR26EN
Flight time 1h 10m
Altitude 38000
Route PODET1T/22 PODET DCT KLAGY DCT NANIT DCT ERKIR DCT KPT L856 AKABI/N0460F370 L856 TRA/N0394F180 T718 RIGVI
Aircraft A320/M-SDE3FGHIRWY/LB1

Departure

Time 2026-05-07 14:36
Airport Zagreb Franjo Tuđman International Airport (LDZA)

Arrival

Time 2026-05-07 15:46
Airport EuroAirport Basel–Mulhouse–Freiburg (LFSB)
Time Latitude Longitude Altitude Speed Heading
2026-05-07 14:01 45.74265 16.07962 359 ft 0 kts 136°
2026-05-07 14:23 45.74268 16.07958 386 ft 3 kts 137°
2026-05-07 14:23 45.74283 16.07939 360 ft 3 kts 143°
2026-05-07 14:24 45.74299 16.07922 361 ft 2 kts 137°
2026-05-07 14:24 45.74311 16.07904 359 ft 3 kts 120°
2026-05-07 14:24 45.74317 16.07880 367 ft 3 kts 84°
2026-05-07 14:24 45.74312 16.07854 363 ft 3 kts 54°
2026-05-07 14:25 45.74299 16.07833 361 ft 3 kts 47°
2026-05-07 14:25 45.74294 16.07825 364 ft 0 kts 47°
2026-05-07 14:29 45.74295 16.07826 364 ft 1 kts 47°
2026-05-07 14:29 45.74314 16.07853 363 ft 8 kts 45°
2026-05-07 14:29 45.74383 16.07900 359 ft 15 kts 345°
2026-05-07 14:29 45.74441 16.07831 359 ft 7 kts 317°
2026-05-07 14:30 45.74443 16.07828 366 ft 0 kts 317°
2026-05-07 14:30 45.74444 16.07827 365 ft 1 kts 317°
2026-05-07 14:30 45.74477 16.07782 363 ft 12 kts 316°
2026-05-07 14:31 45.74546 16.07700 359 ft 13 kts 340°
2026-05-07 14:31 45.74621 16.07772 363 ft 15 kts 48°
2026-05-07 14:31 45.74695 16.07888 359 ft 17 kts 45°
2026-05-07 14:31 45.74780 16.08013 359 ft 16 kts 47°
2026-05-07 14:32 45.74868 16.08056 364 ft 10 kts 319°
2026-05-07 14:32 45.74901 16.08011 358 ft 0 kts 316°
2026-05-07 14:32 45.74901 16.08010 358 ft 1 kts 316°
2026-05-07 14:32 45.74916 16.07989 361 ft 6 kts 316°
2026-05-07 14:33 45.74961 16.07928 358 ft 12 kts 316°
2026-05-07 14:33 45.74950 16.07877 365 ft 0 kts 229°
2026-05-07 14:35 45.74919 16.07828 362 ft 27 kts 227°
2026-05-07 14:35 45.74620 16.07373 358 ft 95 kts 226°
2026-05-07 14:35 45.74037 16.06489 369 ft 145 kts 224°
2026-05-07 14:36 45.73350 16.05411 914 ft 146 kts 225°
2026-05-07 14:36 45.72669 16.04324 1542 ft 148 kts 225°
2026-05-07 14:36 45.71925 16.03135 1807 ft 172 kts 226°
2026-05-07 14:36 45.71083 16.01790 2190 ft 191 kts 228°
2026-05-07 14:37 45.70133 16.00275 2557 ft 216 kts 228°
2026-05-07 14:37 45.67962 15.96710 3767 ft 251 kts 230°
2026-05-07 14:37 45.66916 15.94694 4667 ft 256 kts 245°
2026-05-07 14:38 45.66525 15.92210 5615 ft 259 kts 269°
2026-05-07 14:38 45.66892 15.89674 6545 ft 266 kts 292°
2026-05-07 14:38 45.67974 15.87539 7411 ft 275 kts 316°
2026-05-07 14:38 45.69663 15.86203 8263 ft 286 kts 341°
2026-05-07 14:39 45.71679 15.86091 9074 ft 299 kts
2026-05-07 14:39 45.73688 15.86927 9932 ft 303 kts 15°
2026-05-07 14:39 45.75707 15.87851 10681 ft 308 kts 15°
2026-05-07 14:39 45.77764 15.88799 11443 ft 312 kts 15°
2026-05-07 14:40 45.79858 15.89761 12168 ft 318 kts 15°
2026-05-07 14:40 45.82001 15.90744 12624 ft 334 kts 14°
2026-05-07 14:40 45.84293 15.91757 12787 ft 357 kts 14°
2026-05-07 14:40 45.86742 15.92831 12932 ft 379 kts 14°
2026-05-07 14:41 45.89332 15.93967 13201 ft 396 kts 15°
2026-05-07 14:41 45.92011 15.94984 13750 ft 401 kts
2026-05-07 14:41 45.94799 15.95168 14288 ft 401 kts 352°
2026-05-07 14:41 45.97518 15.94402 14854 ft 398 kts 338°
2026-05-07 14:42 46.00018 15.92734 15453 ft 395 kts 323°
2026-05-07 14:42 46.02155 15.90293 16043 ft 392 kts 310°
2026-05-07 14:42 46.03892 15.87291 16643 ft 391 kts 303°
2026-05-07 14:42 46.05568 15.84186 17256 ft 395 kts 303°
2026-05-07 14:43 46.07264 15.81043 17885 ft 399 kts 303°
2026-05-07 14:43 46.08976 15.77870 18461 ft 404 kts 303°
2026-05-07 14:43 46.10704 15.74658 19019 ft 407 kts 303°
2026-05-07 14:43 46.12441 15.71427 19592 ft 409 kts 303°
2026-05-07 14:44 46.14191 15.68165 20161 ft 411 kts 302°
2026-05-07 14:44 46.15945 15.64891 20718 ft 413 kts 302°
2026-05-07 14:44 46.17609 15.61524 21234 ft 411 kts 296°
2026-05-07 14:44 46.19045 15.58017 21727 ft 412 kts 295°
2026-05-07 14:45 46.20498 15.54452 22210 ft 413 kts 295°
2026-05-07 14:45 46.21960 15.50865 22666 ft 415 kts 294°
2026-05-07 14:45 46.23444 15.47222 23126 ft 417 kts 294°
2026-05-07 14:45 46.24900 15.43646 23566 ft 418 kts 294°
2026-05-07 14:46 46.26376 15.40012 23909 ft 420 kts 294°
2026-05-07 14:46 46.27864 15.36345 24249 ft 423 kts 294°
2026-05-07 14:46 46.29350 15.32677 24616 ft 424 kts 294°
2026-05-07 14:46 46.30845 15.28976 24962 ft 426 kts 294°
2026-05-07 14:47 46.32343 15.25259 25287 ft 429 kts 294°
2026-05-07 14:47 46.33849 15.21525 25619 ft 431 kts 294°
2026-05-07 14:47 46.35363 15.17764 25959 ft 433 kts 294°
2026-05-07 14:47 46.36881 15.13981 26300 ft 435 kts 294°
2026-05-07 14:48 46.38407 15.10175 26626 ft 438 kts 293°
2026-05-07 14:48 46.39939 15.06343 26871 ft 441 kts 293°
2026-05-07 14:48 46.41482 15.02482 27162 ft 444 kts 293°
2026-05-07 14:48 46.43010 14.98667 27660 ft 442 kts 293°
2026-05-07 14:49 46.44553 14.94820 28154 ft 440 kts 293°
2026-05-07 14:49 46.46088 14.90987 28637 ft 439 kts 293°
2026-05-07 14:49 46.47615 14.87157 29116 ft 437 kts 292°
2026-05-07 14:49 46.49131 14.83334 29590 ft 436 kts 292°
2026-05-07 14:50 46.50641 14.79520 30037 ft 435 kts 292°
2026-05-07 14:50 46.52142 14.75712 30431 ft 434 kts 292°
2026-05-07 14:50 46.53616 14.71882 30852 ft 433 kts 292°
2026-05-07 14:50 46.55067 14.68044 31264 ft 432 kts 291°
2026-05-07 14:51 46.56498 14.64220 31725 ft 430 kts 292°
2026-05-07 14:51 46.57920 14.60403 32200 ft 428 kts 292°
2026-05-07 14:51 46.59316 14.56652 32661 ft 426 kts 292°
2026-05-07 14:51 46.60732 14.52863 33106 ft 425 kts 292°
2026-05-07 14:52 46.62148 14.49083 33536 ft 424 kts 292°
2026-05-07 14:52 46.63560 14.45318 33958 ft 423 kts 292°
2026-05-07 14:52 46.64970 14.41553 34307 ft 423 kts 292°
2026-05-07 14:52 46.66373 14.37791 34648 ft 423 kts 292°
2026-05-07 14:53 46.67776 14.34017 34984 ft 423 kts 292°
2026-05-07 14:53 46.69160 14.30292 35330 ft 423 kts 293°
2026-05-07 14:53 46.70560 14.26520 35628 ft 424 kts 293°
2026-05-07 14:53 46.71967 14.22726 35892 ft 425 kts 293°
2026-05-07 14:54 46.73378 14.18925 36182 ft 426 kts 293°
2026-05-07 14:54 46.74788 14.15116 36456 ft 426 kts 293°
2026-05-07 14:54 46.76191 14.11314 36733 ft 426 kts 293°
2026-05-07 14:54 46.77594 14.07503 37026 ft 426 kts 293°
2026-05-07 14:55 46.78996 14.03685 37318 ft 426 kts 293°
2026-05-07 14:55 46.80393 13.99879 37598 ft 425 kts 293°
2026-05-07 14:55 46.81794 13.96064 37871 ft 426 kts 294°
2026-05-07 14:55 46.83200 13.92235 37934 ft 430 kts 294°
2026-05-07 14:56 46.86035 13.84500 37935 ft 432 kts 294°
2026-05-07 14:56 46.88850 13.76811 37951 ft 432 kts 294°
2026-05-07 14:57 46.91679 13.69055 37952 ft 432 kts 294°
2026-05-07 14:57 46.94497 13.61279 37985 ft 432 kts 294°
2026-05-07 14:58 46.97313 13.53487 37992 ft 433 kts 294°
2026-05-07 14:58 47.00125 13.45681 37996 ft 434 kts 294°
2026-05-07 14:59 47.02934 13.37860 37992 ft 433 kts 294°
2026-05-07 14:59 47.05753 13.30013 37999 ft 436 kts 294°
2026-05-07 15:00 47.08577 13.22152 38032 ft 436 kts 294°
2026-05-07 15:00 47.11368 13.14324 38027 ft 436 kts 293°
2026-05-07 15:01 47.14186 13.06367 38033 ft 436 kts 293°
2026-05-07 15:01 47.16970 12.98505 38034 ft 437 kts 293°
2026-05-07 15:02 47.19796 12.90535 38022 ft 436 kts 294°
2026-05-07 15:02 47.22579 12.82653 38043 ft 437 kts 294°
2026-05-07 15:03 47.25369 12.74694 38036 ft 437 kts 294°
2026-05-07 15:03 47.28148 12.66747 38043 ft 436 kts 294°
2026-05-07 15:04 47.30929 12.58799 38040 ft 436 kts 294°
2026-05-07 15:04 47.33707 12.50833 38056 ft 436 kts 294°
2026-05-07 15:05 47.36224 12.42726 38052 ft 432 kts 281°
2026-05-07 15:05 47.37508 12.34095 38043 ft 431 kts 279°
2026-05-07 15:06 47.38759 12.25452 38035 ft 431 kts 279°
2026-05-07 15:06 47.39998 12.16835 38030 ft 431 kts 279°
2026-05-07 15:07 47.41235 12.08168 38032 ft 432 kts 279°
2026-05-07 15:07 47.42473 11.99487 38027 ft 432 kts 279°
2026-05-07 15:08 47.43705 11.90811 38028 ft 432 kts 279°
2026-05-07 15:08 47.44929 11.82113 38024 ft 432 kts 279°
2026-05-07 15:09 47.46141 11.73417 38036 ft 432 kts 279°
2026-05-07 15:09 47.47349 11.64709 38024 ft 432 kts 279°
2026-05-07 15:10 47.48542 11.56052 38015 ft 432 kts 279°
2026-05-07 15:10 47.49736 11.47329 38009 ft 432 kts 279°
2026-05-07 15:11 47.50929 11.38616 38004 ft 432 kts 279°
2026-05-07 15:11 47.52114 11.29905 38009 ft 432 kts 279°
2026-05-07 15:12 47.53288 11.21190 38033 ft 432 kts 279°
2026-05-07 15:12 47.54266 11.13935 38031 ft 432 kts 279°
2026-05-07 15:13 47.55431 11.05216 38034 ft 431 kts 279°
2026-05-07 15:13 47.56581 10.96494 38031 ft 431 kts 279°
2026-05-07 15:14 47.57721 10.87820 38050 ft 431 kts 279°
2026-05-07 15:14 47.58864 10.79104 38040 ft 431 kts 279°
2026-05-07 15:15 47.60005 10.70368 37758 ft 432 kts 279°
2026-05-07 15:15 47.60571 10.65995 37510 ft 431 kts 279°
2026-05-07 15:15 47.61134 10.61627 37246 ft 431 kts 279°
2026-05-07 15:16 47.61693 10.57265 36988 ft 431 kts 279°
2026-05-07 15:16 47.62253 10.52898 36731 ft 431 kts 279°
2026-05-07 15:16 47.62812 10.48530 36484 ft 431 kts 279°
2026-05-07 15:16 47.63372 10.44158 36234 ft 431 kts 279°
2026-05-07 15:17 47.63932 10.39787 35987 ft 431 kts 279°
2026-05-07 15:17 47.64489 10.35412 35721 ft 431 kts 279°
2026-05-07 15:17 47.65036 10.31097 35457 ft 431 kts 279°
2026-05-07 15:17 47.65593 10.26664 35190 ft 431 kts 279°
2026-05-07 15:18 47.66139 10.22290 34929 ft 431 kts 279°
2026-05-07 15:18 47.66678 10.17969 34673 ft 431 kts 279°
2026-05-07 15:18 47.67222 10.13592 34416 ft 431 kts 279°
2026-05-07 15:18 47.67766 10.09215 34161 ft 431 kts 279°
2026-05-07 15:19 47.68307 10.04842 33880 ft 431 kts 279°
2026-05-07 15:19 47.68845 10.00470 33569 ft 431 kts 279°
2026-05-07 15:19 47.69383 9.96087 33301 ft 432 kts 279°
2026-05-07 15:19 47.69922 9.91692 33036 ft 433 kts 279°
2026-05-07 15:20 47.70460 9.87294 32762 ft 434 kts 279°
2026-05-07 15:20 47.70998 9.82879 32494 ft 434 kts 279°
2026-05-07 15:20 47.71533 9.78467 32228 ft 435 kts 279°
2026-05-07 15:20 47.72065 9.74039 32009 ft 436 kts 279°
2026-05-07 15:21 47.72853 9.65114 32030 ft 435 kts 270°
2026-05-07 15:21 47.72611 9.56173 31660 ft 436 kts 267°
2026-05-07 15:22 47.72479 9.51673 31225 ft 436 kts 268°
2026-05-07 15:22 47.72349 9.47166 30799 ft 438 kts 268°
2026-05-07 15:22 47.72219 9.42637 30334 ft 439 kts 267°
2026-05-07 15:22 47.72092 9.38103 29798 ft 441 kts 268°
2026-05-07 15:23 47.71971 9.33547 29218 ft 442 kts 268°
2026-05-07 15:23 47.71849 9.28972 28652 ft 443 kts 268°
2026-05-07 15:23 47.71726 9.24392 28100 ft 445 kts 268°
2026-05-07 15:23 47.71597 9.19787 27555 ft 446 kts 267°
2026-05-07 15:24 47.71459 9.15176 27017 ft 448 kts 267°
2026-05-07 15:24 47.71311 9.10547 26494 ft 449 kts 267°
2026-05-07 15:24 47.71157 9.05909 25947 ft 451 kts 267°
2026-05-07 15:24 47.71001 9.01241 25356 ft 453 kts 267°
2026-05-07 15:25 47.70844 8.96560 24797 ft 455 kts 267°
2026-05-07 15:25 47.70688 8.91844 24240 ft 458 kts 267°
2026-05-07 15:25 47.70532 8.87115 23693 ft 458 kts 267°
2026-05-07 15:25 47.70375 8.82408 23038 ft 456 kts 267°
2026-05-07 15:26 47.70214 8.77730 22355 ft 452 kts 267°
2026-05-07 15:26 47.70049 8.73084 21802 ft 449 kts 266°
2026-05-07 15:26 47.69881 8.68536 21289 ft 446 kts 266°
2026-05-07 15:26 47.69706 8.63903 20767 ft 442 kts 266°
2026-05-07 15:27 47.69534 8.59356 20260 ft 439 kts 266°
2026-05-07 15:27 47.69365 8.54899 19760 ft 436 kts 266°
2026-05-07 15:27 47.69345 8.50418 19267 ft 433 kts 274°
2026-05-07 15:27 47.69773 8.46001 18792 ft 431 kts 282°
2026-05-07 15:28 47.70646 8.41758 18417 ft 430 kts 290°
2026-05-07 15:28 47.71935 8.37766 17992 ft 429 kts 298°
2026-05-07 15:28 47.73596 8.34087 17551 ft 427 kts 304°
2026-05-07 15:28 47.75329 8.30518 17138 ft 424 kts 304°
2026-05-07 15:29 47.77042 8.26960 16725 ft 422 kts 304°
2026-05-07 15:29 47.78740 8.23419 16311 ft 419 kts 304°
2026-05-07 15:29 47.80423 8.19902 15903 ft 417 kts 303°
2026-05-07 15:29 47.82011 8.16322 15490 ft 413 kts 295°
2026-05-07 15:30 47.82900 8.12293 15017 ft 406 kts 277°
2026-05-07 15:30 47.82868 8.08129 14550 ft 402 kts 259°
2026-05-07 15:30 47.82110 8.04140 14097 ft 400 kts 251°
2026-05-07 15:30 47.81062 8.00331 13620 ft 397 kts 244°
2026-05-07 15:31 47.79869 7.96710 13121 ft 394 kts 244°
2026-05-07 15:31 47.78656 7.93071 12619 ft 390 kts 243°
2026-05-07 15:31 47.77453 7.89464 12121 ft 387 kts 243°
2026-05-07 15:31 47.76281 7.85953 11851 ft 370 kts 243°
2026-05-07 15:32 47.75168 7.82617 11729 ft 351 kts 244°
2026-05-07 15:32 47.74064 7.79476 11593 ft 333 kts 239°
2026-05-07 15:32 47.72892 7.76594 11466 ft 318 kts 238°
2026-05-07 15:32 47.71749 7.73846 11341 ft 306 kts 238°
2026-05-07 15:33 47.70651 7.71211 11213 ft 295 kts 238°
2026-05-07 15:33 47.69594 7.68674 11087 ft 284 kts 238°
2026-05-07 15:33 47.68566 7.66209 10948 ft 279 kts 238°
2026-05-07 15:33 47.67559 7.63797 10773 ft 277 kts 238°
2026-05-07 15:34 47.66470 7.61446 10606 ft 276 kts 231°
2026-05-07 15:34 47.65201 7.59305 10433 ft 276 kts 228°
2026-05-07 15:34 47.63684 7.57595 10264 ft 277 kts 205°
2026-05-07 15:34 47.61841 7.56728 10094 ft 280 kts 192°
2026-05-07 15:35 47.59901 7.56391 9925 ft 281 kts 187°
2026-05-07 15:35 47.57955 7.56180 9737 ft 280 kts 186°
2026-05-07 15:35 47.56009 7.55984 9552 ft 280 kts 186°
2026-05-07 15:35 47.54069 7.55788 9365 ft 279 kts 186°
2026-05-07 15:36 47.52135 7.55574 9161 ft 278 kts 186°
2026-05-07 15:36 47.50204 7.55361 8910 ft 277 kts 186°
2026-05-07 15:36 47.48302 7.55148 8672 ft 277 kts 186°
2026-05-07 15:36 47.46381 7.54932 8445 ft 276 kts 186°
2026-05-07 15:37 47.44465 7.54713 8212 ft 276 kts 186°
2026-05-07 15:37 47.42552 7.54487 7980 ft 275 kts 187°
2026-05-07 15:37 47.40642 7.54271 7752 ft 274 kts 186°
2026-05-07 15:37 47.38747 7.54499 7549 ft 277 kts 164°
2026-05-07 15:38 47.36948 7.55545 7381 ft 279 kts 158°
2026-05-07 15:38 47.35181 7.56721 7198 ft 279 kts 157°
2026-05-07 15:38 47.33424 7.57911 7050 ft 277 kts 154°
2026-05-07 15:38 47.32005 7.59707 6992 ft 266 kts 123°
2026-05-07 15:39 47.31382 7.62174 6993 ft 253 kts 95°
2026-05-07 15:39 47.31573 7.64646 6994 ft 237 kts 69°
2026-05-07 15:39 47.32403 7.66670 6998 ft 230 kts 45°
2026-05-07 15:39 47.33678 7.68052 7003 ft 227 kts 21°
2026-05-07 15:40 47.35189 7.68622 6859 ft 223 kts 359°
2026-05-07 15:40 47.36702 7.68309 6610 ft 219 kts 337°
2026-05-07 15:40 47.38087 7.67383 6295 ft 219 kts 332°
2026-05-07 15:40 47.39462 7.66435 5966 ft 218 kts 332°
2026-05-07 15:41 47.40846 7.65481 5609 ft 220 kts 333°
2026-05-07 15:41 47.42224 7.64530 5270 ft 218 kts 333°
2026-05-07 15:41 47.43575 7.63598 4930 ft 215 kts 333°
2026-05-07 15:41 47.44918 7.62671 4589 ft 207 kts 333°
2026-05-07 15:42 47.46183 7.61797 4302 ft 200 kts 334°
2026-05-07 15:42 47.47416 7.60945 3968 ft 191 kts 334°
2026-05-07 15:42 47.48593 7.60131 3663 ft 183 kts 334°
2026-05-07 15:42 47.49745 7.59333 3398 ft 184 kts 334°
2026-05-07 15:43 47.50890 7.58540 3099 ft 177 kts 334°
2026-05-07 15:43 47.51971 7.57792 2836 ft 163 kts 334°
2026-05-07 15:43 47.52933 7.57125 2591 ft 145 kts 334°
2026-05-07 15:43 47.53803 7.56521 2339 ft 132 kts 333°
2026-05-07 15:44 47.54626 7.55947 2158 ft 131 kts 335°
2026-05-07 15:44 47.55462 7.55362 1943 ft 134 kts 335°
2026-05-07 15:44 47.56300 7.54776 1726 ft 134 kts 335°
2026-05-07 15:44 47.57140 7.54196 1506 ft 133 kts 337°
2026-05-07 15:45 47.57979 7.53611 1309 ft 133 kts 338°
2026-05-07 15:45 47.58826 7.53021 1077 ft 135 kts 338°
2026-05-07 15:45 47.59671 7.52448 895 ft 130 kts 338°
2026-05-07 15:45 47.60382 7.51956 884 ft 94 kts 334°
2026-05-07 15:46 47.61030 7.51537 878 ft 15 kts 30°
2026-05-07 15:46 47.61074 7.51659 884 ft 12 kts 64°
2026-05-07 15:46 47.61067 7.51763 885 ft 11 kts 131°
2026-05-07 15:47 47.60975 7.51836 885 ft 20 kts 156°
2026-05-07 15:47 47.60841 7.51927 885 ft 22 kts 155°
2026-05-07 15:47 47.60692 7.52033 885 ft 25 kts 154°
2026-05-07 15:47 47.60530 7.52146 886 ft 27 kts 154°
2026-05-07 15:48 47.60353 7.52267 886 ft 29 kts 155°
2026-05-07 15:48 47.60168 7.52398 887 ft 29 kts 154°
2026-05-07 15:48 47.59992 7.52518 887 ft 27 kts 155°
2026-05-07 15:48 47.59830 7.52639 889 ft 21 kts 150°
2026-05-07 15:49 47.59720 7.52707 890 ft 17 kts 154°
2026-05-07 15:49 47.59621 7.52788 891 ft 9 kts 126°
2026-05-07 15:49 47.59627 7.52867 893 ft 8 kts 64°
2026-05-07 15:49 47.59642 7.52916 894 ft 5 kts 67°
2026-05-07 15:50 47.59669 7.53002 894 ft 11 kts 65°
2026-05-07 15:50 47.59706 7.53110 894 ft 12 kts 44°
2026-05-07 15:50 47.59751 7.53180 894 ft 4 kts 65°
2026-05-07 15:50 47.59756 7.53198 894 ft 2 kts 65°
2026-05-07 15:51 47.59757 7.53201 894 ft 0 kts 65°